Temp
-19 -19 -19 -19 -19 -19 -19 -19 -19 -19 -18 -18 -18 -18 -17 -16 -16 -15 -15 -15 -15 -15 -15 -15 -14 -14 -14 -14 -14 -14 -14 -14 -14 -14 -15 -15 -15 -15 -15 -15 -16 -16 -16 -16 -16 -16 -16 -16 -16 -16 -16 -17 -17 -17
-19 -19 -19 -20 -19 -19 -19 -19 -19 -19 -19 -18 -18 -18 -18 -17 -17 -16 -16 -16 -15 -15 -15 -15 -15 -15 -14 -14 -14 -14 -14 -14 -14 -15 -15 -16 -16 -15 -16 -16 -16 -16 -16 -16 -16 -16 -16 -16 -16 -16 -16 -16 -16 -17
-19 -19 -20 -21 -19 -19 -19 -19 -19 -19 -19 -19 -18 -18 -18 -18 -17 -17 -17 -16 -16 -16 -16 -15 -15 -15 -15 -15 -15 -15 -15 -15 -16 -16 -16 -16 -16 -16 -16 -16 -16 -16 -17 -16 -16 -17 -17 -16 -16 -16 -16 -16 -16 -17
-20 -20 -20 -20 -19 -19 -19 -19 -19 -19 -19 -19 -19 -18 -18 -18 -18 -17 -17 -17 -17 -17 -16 -16 -16 -16 -16 -16 -16 -16 -16 -17 -17 -17 -17 -17 -17 -17 -16 -16 -16 -17 -17 -17 -16 -16 -16 -16 -16 -16 -17 -17 -17 -19
-19 -20 -20 -20 -19 -19 -19 -19 -19 -19 -19 -19 -19 -19 -18 -18 -18 -18 -18 -17 -17 -17 -17 -17 -17 -16 -16 -17 -16 -16 -17 -17 -17 -18 -17 -17 -17 -17 -17 -16 -17 -18 -18 -17 -17 -18 -17 -17 -17 -18 -17 -18 -19 -19
-19 -19 -20 -20 -20 -20 -19 -19 -19 -19 -19 -19 -19 -19 -19 -19 -18 -18 -18 -18 -18 -17 -17 -17 -17 -17 -17 -17 -17 -17 -18 -18 -18 -18 -17 -17 -18 -17 -16 -16 -17 -18 -18 -18 -17 -18 -18 -18 -18 -18 -18 -19 -19 -19
-19 -19 -19 -19 -19 -20 -20 -19 -19 -19 -19 -19 -19 -19 -19 -19 -18 -18 -18 -18 -18 -18 -18 -17 -17 -18 -18 -18 -18 -18 -18 -18 -18 -18 -18 -18 -18 -17 -16 -16 -19 -18 -18 -18 -18 -18 -18 -18 -18 -19 -19 -19 -20 -20
-20 -20 -19 -20 -19 -20 -20 -20 -20 -20 -19 -19 -19 -19 -19 -19 -19 -18 -19 -19 -18 -18 -18 -17 -17 -18 -18 -18 -18 -19 -19 -19 -18 -18 -18 -18 -18 -18 -16 -18 -18 -18 -19 -19 -19 -19 -19 -19 -19 -20 -20 -20 -20 -21
-20 -20 -20 -20 -19 -19 -19 -19 -19 -19 -19 -19 -19 -19 -19 -19 -19 -19 -19 -19 -19 -18 -18 -17 -17 -17 -18 -19 -19 -19 -20 -19 -19 -18 -19 -19 -18 -17 -18 -19 -19 -19 -19 -19 -19 -19 -19 -20 -20 -20 -21 -21 -21 -21
-20 -20 -20 -20 -19 -19 -19 -20 -19 -19 -19 -20 -19 -19 -19 -19 -19 -19 -19 -19 -18 -18 -17 -17 -18 -18 -19 -19 -19 -20 -20 -20 -19 -19 -19 -18 -18 -18 -19 -19 -19 -19 -19 -19 -20 -20 -20 -20 -20 -21 -21 -21 -21 -21
-20 -20 -20 -20 -19 -19 -19 -19 -19 -19 -20 -20 -20 -20 -20 -20 -20 -20 -19 -19 -19 -18 -18 -18 -18 -19 -19 -19 -19 -20 -19 -20 -19 -19 -19 -18 -17 -19 -19 -19 -19 -19 -19 -20 -20 -20 -20 -20 -21 -21 -21 -21 -21 -22
-20 -20 -20 -20 -20 -19 -19 -19 -19 -19 -19 -20 -20 -20 -20 -20 -20 -20 -19 -19 -18 -18 -18 -18 -18 -19 -19 -20 -20 -20 -20 -20 -19 -19 -19 -18 -18 -19 -19 -19 -19 -19 -19 -20 -20 -20 -20 -21 -21 -21 -22 -22 -22 -23
-21 -20 -20 -20 -20 -20 -20 -20 -20 -20 -20 -20 -20 -20 -20 -20 -20 -19 -18 -18 -19 -18 -18 -18 -19 -19 -20 -20 -20 -20 -20 -20 -20 -19 -19 -19 -19 -19 -19 -19 -19 -20 -20 -20 -20 -20 -21 -21 -22 -22 -23 -23 -23 -23
-21 -20 -20 -20 -20 -20 -20 -20 -20 -20 -20 -20 -20 -20 -20 -20 -20 -19 -19 -19 -19 -19 -19 -19 -19 -19 -19 -20 -20 -20 -20 -20 -20 -20 -19 -20 -20 -20 -20 -20 -20 -20 -20 -20 -21 -21 -22 -22 -23 -24 -24 -23 -24 -24
-21 -20 -20 -20 -20 -20 -20 -20 -20 -20 -20 -20 -21 -21 -20 -21 -20 -20 -20 -20 -20 -20 -20 -19 -19 -19 -20 -20 -21 -20 -21 -21 -21 -21 -20 -20 -21 -21 -21 -21 -21 -21 -22 -22 -22 -23 -23 -24 -24 -24 -24 -24 -25 -25
-24 -23 -23 -22 -22 -21 -21 -20 -21 -20 -20 -20 -20 -21 -21 -21 -21 -21 -21 -21 -21 -21 -20 -21 -21 -21 -21 -21 -21 -21 -21 -21 -21 -21 -22 -22 -22 -22 -22 -22 -22 -23 -23 -24 -24 -24 -24 -24 -24 -25 -25 -26 -26 -26
-26 -25 -25 -25 -24 -24 -23 -23 -23 -22 -23 -23 -23 -23 -23 -23 -23 -23 -23 -23 -22 -22 -22 -22 -22 -22 -22 -22 -22 -22 -23 -22 -22 -22 -22 -23 -23 -23 -24 -24 -24 -24 -24 -24 -25 -25 -25 -26 -26 -26 -27 -27 -28 -28
-26 -25 -26 -25 -25 -25 -25 -25 -25 -25 -24 -24 -24 -24 -24 -24 -23 -23 -23 -23 -23 -23 -23 -22 -22 -23 -23 -23 -23 -23 -24 -24 -23 -23 -24 -24 -24 -24 -25 -25 -25 -25 -25 -26 -26 -27 -28 -28 -28 -28 -28 -28 -29 -30
-26 -26 -26 -26 -25 -25 -25 -25 -25 -25 -25 -25 -25 -25 -25 -25 -25 -24 -24 -24 -24 -24 -24 -23 -24 -23 -24 -24 -24 -25 -25 -24 -24 -24 -24 -25 -25 -25 -25 -26 -26 -27 -27 -28 -28 -28 -28 -28 -29 -29 -29 -30 -30 -30
-26 -26 -26 -26 -26 -26 -26 -25 -25 -25 -25 -25 -25 -25 -25 -25 -25 -25 -25 -25 -25 -25 -25 -25 -25 -25 -25 -25 -26 -26 -26 -26 -25 -26 -26 -26 -27 -27 -28 -28 -28 -28 -28 -28 -28 -29 -29 -30 -30 -30 -31 -31 -31 -31
-26 -26 -26 -26 -26 -26 -26 -25 -25 -25 -25 -25 -25 -25 -25 -25 -25 -25 -25 -25 -25 -25 -26 -26 -26 -26 -26 -27 -28 -28 -28 -28 -28 -28 -28 -28 -29 -29 -29 -29 -29 -29 -29 -30 -30 -30 -30 -31 -31 -31 -31 -31 -31 -31
-26 -26 -26 -26 -26 -25 -25 -25 -25 -25 -25 -26 -26 -26 -26 -26 -26 -26 -26 -26 -26 -27 -27 -27 -28 -28 -28 -28 -28 -28 -28 -29 -29 -29 -29 -29 -29 -29 -29 -29 -30 -30 -31 -31 -31 -31 -31 -31 -31 -31 -31 -31 -31 -31
-26 -26 -26 -26 -26 -26 -26 -26 -26 -26 -26 -26 -26 -26 -27 -27 -27 -27 -27 -28 -28 -28 -29 -29 -29 -29 -29 -29 -29 -29 -29 -29 -29 -29 -29 -29 -29 -29 -30 -30 -31 -31 -31 -31 -31 -31 -31 -32 -32 -32 -32 -32 -32 -32
-27 -27 -27 -26 -26 -26 -26 -26 -27 -27 -27 -27 -27 -28 -28 -29 -29 -29 -29 -30 -30 -30 -29 -29 -29 -29 -30 -30 -30 -30 -29 -29 -29 -29 -29 -30 -30 -30 -31 -31 -31 -32 -32 -32 -32 -32 -32 -32 -32 -32 -32 -32 -32 -32
-29 -29 -28 -28 -28 -28 -28 -29 -29 -29 -29 -29 -30 -30 -30 -30 -30 -30 -30 -30 -30 -30 -30 -30 -30 -30 -30 -30 -30 -30 -30 -30 -30 -30 -30 -30 -30 -31 -31 -31 -32 -32 -32 -32 -32 -32 -32 -32 -32 -33 -32 -32 -32 -32
-32 -32 -32 -32 -32 -32 -32 -32 -31 -31 -31 -31 -31 -31 -31 -31 -30 -30 -30 -30 -30 -30 -30 -30 -30 -30 -30 -30 -30 -30 -30 -30 -30 -30 -31 -31 -31 -31 -32 -32 -32 -33 -33 -33 -32 -32 -32 -33 -33 -33 -33 -33 -33 -33
-32 -32 -32 -32 -32 -32 -31 -31 -31 -31 -31 -31 -31 -31 -31 -31 -30 -30 -30 -30 -30 -30 -30 -30 -30 -30 -30 -30 -30 -30 -30 -31 -31 -31 -31 -32 -32 -32 -33 -33 -32 -32 -32 -32 -32 -32 -33 -33 -33 -33 -33 -33 -33 -33
-32 -32 -31 -31 -31 -31 -31 -31 -31 -31 -31 -31 -31 -31 -31 -30 -30 -30 -30 -30 -30 -30 -30 -30 -30 -30 -30 -31 -31 -31 -31 -32 -32 -32 -32 -32 -33 -33 -33 -33 -33 -33 -33 -32 -32 -32 -32 -32 -32 -32 -33 -33 -33 -33
-32 -32 -32 -31 -31 -31 -31 -31 -31 -31 -31 -31 -31 -31 -31 -31 -30 -30 -31 -31 -30 -31 -31 -31 -31 -31 -31 -31 -32 -32 -32 -32 -33 -33 -33 -33 -33 -33 -33 -33 -33 -33 -33 -33 -33 -33 -33 -33 -33 -33 -33 -33 -34 -34
-32 -32 -32 -32 -32 -32 -31 -31 -31 -31 -31 -31 -31 -31 -31 -31 -31 -31 -31 -31 -31 -31 -31 -31 -32 -32 -32 -32 -32 -32 -33 -33 -33 -33 -33 -33 -33 -33 -33 -33 -33 -33 -34 -34 -34 -34 -34 -34 -34 -34 -34 -34 -34 -34
-32 -32 -32 -32 -31 -31 -31 -31 -31 -31 -31 -31 -31 -31 -31 -31 -31 -31 -32 -32 -32 -32 -32 -32 -32 -32 -33 -33 -33 -33 -33 -33 -33 -33 -33 -33 -33 -34 -34 -34 -34 -34 -34 -35 -35 -35 -35 -35 -34 -34 -34 -35 -35 -36
-32 -32 -32 -32 -32 -32 -32 -32 -31 -31 -31 -31 -31 -32 -32 -32 -32 -32 -32 -33 -33 -33 -33 -33 -33 -33 -33 -33 -33 -33 -33 -33 -33 -34 -34 -34 -34 -35 -35 -35 -35 -35 -35 -35 -35 -35 -35 -35 -34 -35 -35 -35 -36 -37
-32 -32 -32 -32 -32 -32 -32 -32 -32 -32 -32 -32 -32 -33 -33 -33 -33 -33 -33 -33 -33 -33 -33 -33 -34 -34 -34 -33 -33 -34 -34 -34 -34 -34 -35 -35 -35 -35 -35 -36 -35 -35 -35 -35 -36 -36 -36 -35 -35 -35 -35 -36 -37 -38
Height
5542 5552 5562 5573 5586 5597 5607 5617 5625 5633 5641 5648 5654 5661 5668 5674 5681 5688 5695 5701 5707 5712 5717 5721 5725 5729 5733 5736 5738 5740 5741 5742 5743 5743 5743 5744 5743 5744 5746 5747 5748 5747 5744 5745 5742 5741 5739 5736 5733 5731 5727 5721 5717 5713
5539 5550 5562 5574 5586 5597 5607 5616 5624 5631 5639 5647 5653 5660 5665 5671 5677 5683 5690 5696 5701 5706 5711 5715 5719 5722 5725 5728 5730 5730 5733 5734 5734 5736 5736 5736 5736 5736 5737 5736 5738 5737 5735 5733 5734 5731 5728 5724 5723 5720 5715 5711 5706 5701
5543 5553 5564 5576 5587 5597 5607 5615 5623 5631 5638 5645 5651 5657 5663 5669 5674 5679 5684 5690 5695 5699 5704 5708 5711 5714 5717 5719 5721 5723 5723 5725 5725 5725 5726 5726 5727 5728 5727 5728 5727 5728 5723 5723 5722 5722 5718 5714 5711 5706 5701 5697 5692 5687
5547 5557 5568 5577 5587 5596 5605 5613 5621 5629 5636 5643 5649 5655 5661 5666 5671 5676 5680 5685 5689 5693 5697 5700 5702 5705 5709 5711 5714 5714 5715 5715 5716 5716 5717 5718 5719 5718 5719 5717 5716 5719 5713 5712 5709 5708 5703 5702 5697 5692 5687 5684 5679 5673
5551 5559 5568 5577 5586 5595 5603 5612 5619 5626 5633 5640 5646 5652 5657 5662 5667 5672 5676 5680 5684 5689 5691 5694 5696 5698 5700 5702 5703 5705 5706 5706 5707 5709 5709 5709 5707 5708 5707 5706 5709 5710 5704 5700 5699 5695 5692 5691 5685 5680 5675 5672 5667 5661
5553 5561 5568 5577 5585 5594 5602 5609 5616 5623 5630 5636 5642 5648 5653 5658 5662 5666 5670 5674 5678 5681 5685 5688 5690 5691 5692 5693 5694 5695 5697 5698 5698 5698 5698 5698 5698 5698 5696 5698 5703 5696 5693 5689 5688 5684 5681 5677 5672 5667 5663 5659 5653 5647
5553 5561 5568 5576 5583 5591 5599 5607 5614 5620 5626 5632 5638 5643 5648 5652 5657 5661 5665 5670 5672 5674 5677 5679 5681 5684 5684 5686 5687 5688 5687 5688 5688 5688 5688 5688 5687 5687 5688 5689 5688 5684 5681 5679 5676 5672 5668 5663 5658 5653 5649 5646 5640 5633
5553 5559 5566 5574 5582 5589 5597 5604 5610 5616 5622 5628 5633 5638 5643 5646 5651 5655 5659 5663 5666 5668 5670 5671 5674 5679 5680 5680 5678 5679 5679 5679 5680 5679 5680 5680 5678 5676 5676 5681 5674 5672 5669 5667 5663 5659 5654 5649 5645 5640 5634 5631 5626 5620
5553 5559 5565 5573 5580 5586 5593 5599 5605 5611 5617 5622 5627 5632 5636 5640 5644 5648 5652 5655 5658 5661 5661 5664 5667 5669 5672 5672 5671 5671 5670 5670 5671 5671 5669 5668 5668 5666 5669 5665 5662 5659 5656 5652 5648 5645 5642 5637 5631 5626 5621 5616 5611 5605
5552 5559 5564 5570 5576 5582 5589 5595 5601 5606 5611 5617 5622 5626 5630 5634 5638 5642 5644 5647 5649 5652 5653 5656 5660 5659 5661 5662 5662 5663 5661 5661 5659 5661 5658 5656 5656 5659 5655 5651 5650 5646 5642 5638 5633 5630 5626 5623 5616 5612 5608 5603 5597 5591
5551 5558 5563 5568 5574 5580 5586 5591 5596 5601 5606 5611 5616 5620 5624 5628 5631 5633 5636 5639 5642 5644 5647 5648 5651 5650 5651 5651 5652 5651 5649 5648 5647 5648 5645 5645 5646 5646 5642 5640 5637 5634 5630 5625 5623 5618 5614 5609 5605 5600 5594 5587 5581 5575
5550 5556 5560 5566 5570 5576 5581 5586 5591 5596 5601 5605 5610 5613 5617 5620 5622 5626 5628 5631 5632 5635 5636 5639 5642 5642 5641 5641 5639 5638 5637 5636 5634 5635 5632 5632 5633 5630 5628 5625 5622 5619 5616 5612 5609 5605 5599 5594 5589 5584 5578 5572 5567 5559
5545 5551 5556 5562 5566 5571 5576 5582 5586 5591 5595 5599 5603 5607 5610 5612 5614 5617 5619 5621 5624 5626 5628 5630 5630 5630 5631 5630 5627 5626 5624 5623 5623 5622 5620 5620 5618 5616 5614 5610 5607 5605 5601 5598 5594 5588 5583 5578 5572 5568 5563 5557 5550 5543
5539 5545 5551 5556 5560 5564 5569 5573 5579 5583 5588 5591 5594 5597 5599 5602 5605 5608 5611 5613 5615 5617 5618 5619 5619 5619 5618 5617 5616 5614 5612 5610 5607 5607 5608 5606 5603 5599 5598 5596 5593 5589 5585 5581 5577 5573 5568 5563 5558 5552 5546 5540 5534 5527
5532 5537 5542 5547 5551 5555 5561 5565 5570 5574 5578 5582 5584 5586 5589 5592 5595 5598 5601 5603 5604 5605 5606 5607 5607 5607 5606 5604 5604 5602 5600 5597 5596 5594 5594 5592 5588 5584 5580 5578 5576 5573 5569 5565 5561 5557 5553 5550 5544 5537 5530 5524 5519 5513
5528 5531 5535 5538 5542 5547 5551 5554 5558 5563 5566 5569 5572 5575 5578 5581 5583 5585 5588 5590 5591 5593 5594 5593 5593 5592 5591 5589 5589 5588 5586 5583 5581 5580 5578 5575 5573 5571 5567 5563 5560 5557 5554 5550 5547 5544 5539 5534 5530 5523 5516 5509 5502 5495
5526 5528 5531 5533 5536 5539 5543 5546 5549 5551 5555 5558 5560 5563 5565 5568 5570 5573 5575 5577 5579 5580 5580 5580 5579 5579 5579 5578 5577 5575 5572 5571 5568 5565 5564 5561 5559 5557 5554 5550 5547 5545 5541 5538 5533 5528 5524 5519 5514 5507 5501 5492 5485 5478
5524 5526 5528 5530 5532 5535 5537 5540 5542 5545 5547 5549 5552 5554 5555 5557 5559 5561 5562 5564 5566 5566 5566 5567 5566 5565 5564 5563 5563 5563 5561 5560 5557 5553 5551 5549 5547 5544 5542 5538 5534 5531 5527 5522 5517 5512 5507 5501 5495 5489 5484 5478 5472 5464
5522 5524 5526 5528 5530 5532 5534 5536 5537 5538 5539 5542 5544 5546 5547 5548 5549 5550 5551 5551 5552 5552 5552 5553 5552 5551 5551 5550 5549 5549 5547 5544 5542 5540 5538 5535 5532 5528 5524 5520 5517 5513 5509 5505 5500 5496 5490 5484 5479 5473 5468 5463 5457 5451
5516 5518 5520 5522 5524 5526 5528 5530 5531 5533 5534 5535 5536 5538 5539 5539 5540 5541 5541 5540 5541 5540 5540 5539 5538 5538 5537 5537 5536 5535 5531 5530 5529 5527 5524 5521 5517 5514 5511 5508 5505 5501 5496 5491 5486 5481 5476 5471 5463 5457 5452 5446 5441 5436
5508 5510 5512 5514 5516 5518 5520 5522 5523 5525 5526 5527 5527 5528 5529 5529 5529 5529 5529 5529 5529 5528 5526 5526 5526 5526 5526 5524 5522 5520 5520 5519 5517 5515 5512 5509 5505 5502 5498 5495 5491 5486 5481 5476 5472 5467 5460 5453 5449 5443 5438 5432 5426 5419
5498 5500 5502 5503 5505 5508 5510 5511 5512 5513 5515 5515 5516 5516 5517 5517 5517 5517 5517 5517 5516 5515 5515 5515 5514 5514 5513 5512 5511 5511 5510 5509 5507 5504 5501 5498 5494 5490 5484 5480 5476 5471 5465 5460 5455 5450 5446 5439 5433 5427 5421 5416 5409 5403
5487 5488 5489 5490 5493 5494 5497 5496 5498 5499 5500 5501 5501 5502 5503 5504 5504 5504 5505 5505 5505 5505 5505 5505 5505 5504 5503 5503 5502 5501 5499 5498 5495 5492 5489 5485 5481 5475 5469 5464 5459 5455 5450 5444 5439 5434 5429 5423 5417 5411 5405 5399 5393 5388
5473 5474 5474 5475 5476 5477 5479 5479 5479 5482 5483 5485 5487 5489 5490 5491 5492 5493 5494 5495 5496 5496 5497 5496 5495 5495 5495 5494 5493 5491 5489 5486 5483 5480 5476 5472 5466 5459 5453 5448 5442 5437 5432 5428 5423 5417 5411 5406 5400 5393 5387 5382 5377 5372
5460 5458 5457 5457 5457 5458 5459 5460 5462 5465 5469 5472 5474 5478 5480 5482 5483 5485 5486 5487 5486 5486 5487 5487 5486 5485 5485 5484 5482 5480 5476 5472 5468 5464 5462 5457 5451 5445 5438 5432 5427 5421 5416 5411 5406 5400 5394 5388 5382 5376 5371 5365 5360 5356
5450 5448 5448 5446 5448 5451 5453 5455 5456 5457 5460 5464 5468 5471 5474 5476 5476 5478 5480 5479 5478 5478 5478 5477 5476 5475 5474 5472 5470 5467 5462 5457 5452 5447 5444 5439 5433 5427 5422 5417 5411 5404 5397 5392 5387 5382 5377 5371 5365 5359 5354 5348 5343 5339
5449 5449 5449 5449 5450 5452 5452 5453 5454 5457 5459 5461 5464 5466 5468 5469 5470 5471 5471 5470 5469 5467 5466 5466 5465 5464 5462 5459 5456 5451 5446 5440 5436 5431 5426 5420 5414 5409 5404 5398 5393 5387 5381 5374 5368 5363 5358 5353 5347 5341 5336 5331 5326 5321
5449 5449 5450 5450 5450 5451 5451 5452 5452 5453 5455 5457 5459 5461 5461 5462 5463 5462 5461 5461 5460 5457 5456 5454 5452 5450 5447 5444 5440 5435 5429 5422 5418 5415 5409 5403 5397 5390 5384 5378 5372 5367 5361 5354 5349 5343 5336 5330 5325 5320 5315 5310 5305 5300
5448 5449 5449 5449 5449 5449 5449 5450 5450 5451 5452 5452 5453 5453 5453 5453 5453 5452 5451 5450 5449 5447 5444 5441 5438 5435 5432 5428 5424 5419 5414 5408 5401 5395 5390 5385 5379 5372 5366 5360 5354 5347 5341 5335 5327 5321 5316 5309 5303 5299 5294 5289 5284 5280
5448 5447 5447 5447 5447 5448 5448 5448 5448 5448 5448 5447 5447 5447 5446 5445 5444 5442 5439 5436 5433 5431 5429 5426 5422 5419 5415 5412 5408 5403 5398 5391 5386 5381 5374 5368 5362 5356 5350 5344 5337 5331 5325 5319 5313 5305 5298 5293 5286 5279 5273 5267 5263 5259
5446 5446 5445 5445 5444 5444 5443 5443 5442 5442 5441 5440 5439 5438 5435 5433 5431 5429 5426 5422 5418 5416 5414 5410 5406 5402 5398 5393 5388 5384 5379 5375 5369 5363 5356 5350 5344 5338 5333 5327 5321 5316 5310 5304 5298 5292 5285 5277 5270 5262 5253 5246 5241 5237
5443 5442 5441 5440 5439 5438 5437 5436 5435 5433 5431 5430 5428 5426 5423 5419 5416 5415 5411 5407 5403 5400 5397 5393 5389 5385 5381 5376 5372 5367 5362 5357 5351 5346 5340 5334 5329 5324 5319 5313 5308 5303 5298 5292 5285 5279 5272 5264 5255 5247 5239 5232 5227 5223
5435 5434 5433 5432 5431 5429 5427 5426 5424 5422 5420 5417 5415 5412 5409 5405 5401 5398 5394 5391 5388 5384 5380 5377 5373 5369 5364 5359 5355 5350 5345 5341 5336 5332 5327 5323 5318 5312 5307 5302 5297 5293 5287 5282 5276 5269 5262 5254 5246 5238 5230 5223 5217 5213
Wind_Speed
48 47 54 64 56 53 50 47 44 42 37 35 35 35 38 41 44 46 45 44 43 43 42 41 40 38 35 33 33 32 32 30 30 30 31 32 34 33 34 34 35 38 40 38 40 40 41 41 43 44 45 45 49 52
54 59 64 60 55 52 49 46 42 40 38 34 33 33 34 36 39 41 41 41 41 42 41 41 40 39 38 37 38 38 38 36 36 34 35 36 38 39 38 39 37 39 40 42 41 40 41 44 45 46 46 48 55 54
51 59 57 54 52 50 47 45 42 39 37 36 33 31 31 31 32 33 34 35 38 39 41 42 42 42 41 41 41 40 41 40 39 38 38 38 39 39 41 41 43 41 43 44 43 41 42 45 46 50 52 57 60 56
45 47 49 45 46 47 46 45 43 40 38 36 34 32 31 30 30 30 30 30 32 33 35 37 39 40 40 40 39 40 40 37 38 39 40 39 39 41 40 42 44 38 44 43 47 45 47 46 47 51 56 60 57 55
46 47 45 47 45 42 43 44 42 40 38 37 35 34 33 32 31 30 30 30 30 31 31 33 35 36 36 36 37 37 39 39 37 36 36 37 39 39 40 42 39 34 39 41 41 42 43 43 47 52 55 56 55 55
35 35 43 41 38 40 38 37 38 40 38 38 38 36 34 33 32 32 32 33 32 31 31 31 33 33 35 35 34 34 33 32 32 31 33 35 35 38 40 38 30 30 34 39 41 42 43 47 51 54 55 55 54 54
32 30 35 39 42 37 38 40 40 38 37 38 38 37 36 36 35 35 33 31 32 32 33 34 34 32 33 33 32 29 31 29 30 30 30 31 31 36 38 38 28 34 38 40 42 44 48 50 53 54 53 53 53 54
33 25 29 31 39 38 36 34 33 38 40 37 36 35 35 36 37 37 35 33 32 33 34 37 37 31 29 29 30 28 29 30 29 32 33 32 35 37 42 34 40 40 40 42 45 47 50 53 54 54 54 55 56 57
37 33 34 33 34 35 33 32 35 35 37 38 38 39 39 39 38 36 35 35 35 36 37 36 33 30 28 29 30 30 31 33 35 36 38 39 42 44 41 44 45 47 48 47 46 48 49 51 52 53 52 53 57 60
41 38 39 37 36 36 38 36 34 35 36 38 38 37 36 35 35 35 36 37 37 38 38 36 33 35 33 32 32 33 34 36 39 40 43 46 47 45 44 46 46 47 47 45 46 49 50 50 47 48 51 56 60 62
40 44 42 38 35 32 36 37 36 34 34 35 36 36 35 35 35 36 37 38 38 37 36 33 33 34 33 32 29 29 32 35 37 38 42 44 43 41 42 39 40 42 43 45 47 49 50 51 53 55 56 59 63 66
42 45 43 41 40 37 38 37 39 38 37 35 34 34 33 34 35 34 32 32 32 33 34 33 29 28 30 31 35 37 37 37 39 38 40 41 37 38 40 45 48 48 47 47 49 51 52 52 54 56 60 63 64 66
24 28 34 42 43 41 38 40 41 39 38 36 35 35 34 33 34 35 36 36 35 34 34 32 32 32 34 37 38 39 41 42 42 43 45 44 43 46 48 48 50 49 50 51 53 55 55 56 58 58 59 61 64 66
30 29 29 32 30 45 42 41 42 39 39 42 40 39 40 40 41 42 40 38 38 37 37 38 38 40 40 40 41 41 44 45 47 49 48 48 50 53 54 52 51 53 54 55 57 58 58 57 56 57 60 64 63 61
31 34 35 37 37 37 40 38 50 43 40 41 43 45 46 45 44 44 45 45 46 46 45 45 47 48 47 48 47 49 51 51 52 53 53 53 52 50 53 53 52 54 57 57 55 54 53 54 59 61 59 58 60 65
19 22 25 28 32 36 41 44 44 45 46 46 47 44 45 44 44 46 47 48 49 50 52 53 52 52 53 54 55 55 53 50 51 53 53 52 50 49 53 57 56 51 47 48 49 52 57 55 53 55 59 64 65 65
12 12 12 12 14 18 24 32 39 42 43 44 43 43 42 41 40 42 43 44 45 46 48 48 50 51 50 47 46 45 43 46 47 49 51 51 49 46 43 42 43 44 48 53 52 51 53 56 57 57 59 60 61 61
13 12 11 11 11 11 12 13 15 20 26 33 38 42 43 43 43 43 42 43 45 46 47 49 50 52 51 50 48 45 42 41 44 43 41 42 42 42 42 44 45 44 48 53 54 51 53 54 55 57 58 57 57 58
18 18 18 18 18 17 17 16 17 18 19 20 22 24 25 27 29 32 36 38 42 43 46 48 49 49 47 47 45 41 40 42 44 46 45 42 43 47 51 52 51 52 50 49 50 53 56 57 57 57 57 57 55 54
21 21 21 22 23 24 24 24 24 24 25 26 26 27 27 28 28 29 31 33 34 35 36 37 38 38 41 40 39 39 43 46 48 48 47 44 41 40 40 41 43 46 49 52 55 56 55 54 56 56 54 54 56 55
28 28 29 29 29 29 30 30 31 32 33 33 34 34 35 36 37 37 38 39 38 38 38 39 39 38 35 31 31 34 34 33 34 35 36 36 38 41 43 46 46 47 49 51 51 51 54 54 53 53 55 56 55 55
36 36 37 38 38 38 38 38 39 39 40 41 41 40 40 40 40 40 39 39 37 36 36 34 31 29 29 29 30 30 30 28 29 33 35 38 42 46 49 49 49 49 50 53 54 54 53 53 55 57 56 57 57 55
44 45 46 47 47 47 47 48 48 48 47 47 46 46 44 41 38 37 35 33 31 28 23 23 24 26 28 28 27 27 29 32 36 37 40 42 45 48 51 52 53 53 55 55 54 55 56 57 57 59 59 59 56 54
49 50 51 52 53 53 53 52 51 50 49 46 42 39 36 32 29 26 23 22 23 26 27 29 30 29 29 29 31 33 35 38 41 43 45 48 51 54 55 55 56 56 56 56 58 58 57 59 61 60 59 56 54 52
43 41 46 47 46 45 42 38 38 37 34 31 30 28 23 22 21 21 22 24 27 26 27 27 29 31 32 33 35 37 42 46 49 50 52 53 55 56 57 58 59 60 61 60 59 59 61 61 59 58 56 54 53 52
8 9 6 3 3 5 8 7 10 16 22 22 22 20 18 19 21 20 18 22 25 26 27 28 31 34 36 37 40 45 49 52 55 57 57 59 59 60 61 60 60 60 63 63 62 60 59 58 58 57 56 56 55 54
6 6 3 3 2 1 2 3 5 7 12 19 23 23 22 24 24 22 25 28 30 31 32 32 33 35 40 44 47 50 54 57 59 61 62 61 61 60 60 61 63 63 62 62 61 61 60 60 60 59 58 57 57 56
4 3 1 2 3 4 4 3 4 8 9 11 16 21 26 26 29 32 33 34 33 32 33 37 41 43 46 49 52 55 58 60 60 59 59 61 61 61 61 61 60 59 59 59 59 60 61 61 60 59 59 58 58 57
7 7 8 8 6 6 9 11 13 14 15 16 19 24 27 30 30 30 30 32 34 38 41 44 47 50 52 53 54 55 55 56 60 60 57 56 57 59 60 60 61 61 61 61 62 61 60 60 59 57 57 56 55 54
12 12 11 12 14 16 16 17 19 21 21 21 21 23 25 28 31 34 37 40 43 45 47 49 50 50 51 52 53 53 53 53 53 54 57 58 59 60 60 60 59 58 56 54 52 52 53 54 55 57 57 58 57 57
8 9 10 11 13 14 16 17 19 21 23 25 27 29 32 35 37 40 42 44 45 46 47 50 52 52 51 52 52 53 54 55 58 60 60 59 57 54 52 49 47 46 46 45 47 50 51 51 52 53 52 50 48 47
15 16 17 18 19 21 22 24 26 28 30 32 34 36 38 41 43 44 45 47 48 48 49 49 49 50 51 52 55 57 59 59 56 52 49 47 44 43 43 43 42 42 44 46 45 44 45 46 46 45 43 41 38 36
23 24 25 25 26 27 29 30 32 32 33 34 35 36 37 39 41 43 45 46 47 48 49 51 52 54 55 56 57 54 51 48 44 41 38 39 41 42 41 40 40 40 41 39 39 40 41 42 43 43 41 38 34 31
Wind_Direction
194 194 190 176 177 179 180 181 184 183 185 186 187 193 198 200 204 210 213 216 220 224 226 230 235 240 244 245 251 255 256 256 255 254 254 253 256 257 258 258 259 262 267 273 276 283 287 291 296 304 307 308 310 310
183 182 181 172 178 181 182 184 187 188 187 188 189 193 195 200 205 210 214 217 221 226 231 233 237 240 244 247 249 252 255 256 257 256 256 256 257 258 262 263 263 266 268 274 278 284 289 292 298 304 303 304 308 309
169 175 172 175 180 182 185 187 188 191 193 193 194 197 199 202 205 210 214 218 223 228 231 235 238 241 244 246 250 252 254 256 257 258 257 259 261 262 264 266 268 271 274 278 282 284 289 292 300 301 302 305 308 308
169 174 176 179 183 186 188 191 191 193 195 196 198 201 205 208 210 214 218 219 224 229 233 238 241 244 245 247 249 254 257 259 261 263 265 266 268 267 269 270 270 277 280 283 283 290 290 299 300 300 302 305 306 303
185 177 182 185 186 186 192 195 195 197 200 202 202 205 208 210 214 220 225 228 230 233 238 242 245 249 252 254 256 256 258 262 264 267 270 269 270 272 272 272 278 283 282 284 287 288 292 295 295 296 299 302 300 301
186 191 186 182 185 190 192 194 199 203 205 207 209 212 215 217 219 223 226 229 233 237 241 245 249 253 255 258 261 265 267 270 271 269 268 268 269 270 273 277 284 280 280 282 288 289 293 293 293 296 299 299 301 302
196 200 200 198 193 193 198 202 204 202 207 212 213 216 221 225 227 231 234 238 241 242 243 245 246 251 257 261 265 269 269 271 269 271 273 273 273 274 278 281 288 283 283 286 289 292 293 293 294 296 297 298 298 297
184 183 186 196 206 195 200 202 206 210 208 211 215 220 225 229 232 236 239 243 247 250 252 253 254 255 261 265 266 265 266 267 265 264 265 268 271 276 283 289 284 286 286 290 291 292 292 294 296 295 295 297 297 301
195 193 188 193 197 198 204 211 208 210 211 214 217 220 226 231 236 238 241 244 245 249 251 255 260 262 257 261 265 267 269 268 264 266 271 269 269 275 282 284 285 287 290 291 290 292 295 297 297 295 296 296 298 301
202 198 196 196 198 202 207 209 209 212 216 219 219 223 228 233 237 240 243 246 247 249 254 257 262 266 267 266 267 269 271 271 272 270 272 271 276 281 284 284 287 289 290 287 289 296 300 300 302 294 293 294 298 300
197 202 204 206 206 210 209 210 212 215 220 222 221 225 226 231 235 241 246 246 248 251 254 259 267 270 271 274 271 271 271 271 272 274 278 281 285 283 280 285 294 293 288 282 285 293 296 295 295 293 295 297 299 301
189 200 205 210 213 217 215 215 216 217 217 216 221 228 235 238 241 243 243 245 248 249 252 261 266 269 271 269 273 277 279 278 279 282 285 288 290 289 289 290 292 292 290 288 291 296 294 293 294 295 296 297 296 294
227 214 207 209 212 215 216 216 215 219 222 223 223 222 227 232 234 234 238 242 248 254 255 260 263 265 267 268 271 274 275 276 277 279 282 285 287 288 291 290 289 289 290 293 297 296 293 293 295 295 291 291 295 298
220 230 232 233 225 208 213 213 217 222 225 226 224 229 232 234 236 239 243 250 254 255 258 261 263 267 269 275 276 273 278 279 279 280 282 284 287 288 290 290 292 295 297 296 295 294 291 288 287 289 292 295 297 300
217 221 221 227 228 222 228 231 227 230 237 237 237 238 240 242 247 250 252 255 260 262 261 261 263 265 266 269 270 271 275 275 277 282 285 287 289 291 292 294 294 293 293 291 289 286 284 285 287 291 294 297 302 305
215 220 224 224 225 226 227 231 235 238 241 242 247 249 249 250 252 254 256 256 258 258 260 262 264 266 269 271 274 278 278 276 280 284 288 289 290 288 285 286 287 287 285 282 280 282 285 288 291 295 299 301 303 303
194 200 207 214 219 223 225 228 233 237 241 244 247 249 252 254 255 255 256 258 259 258 259 263 264 263 266 266 269 274 282 283 282 281 279 279 280 280 279 277 276 276 274 275 282 286 290 295 298 299 301 300 300 302
220 221 228 231 232 235 233 231 230 233 240 244 246 249 250 251 253 253 254 256 256 258 259 261 263 267 272 275 276 271 273 277 277 274 274 277 279 276 274 274 276 279 283 290 296 298 299 298 297 296 297 300 301 303
232 231 232 236 238 239 240 242 245 249 252 253 254 255 255 256 257 260 262 264 265 265 264 265 266 267 269 270 272 271 270 272 271 271 273 274 274 278 284 289 295 298 299 297 296 295 295 296 298 299 300 299 300 302
250 248 247 247 246 246 246 248 251 253 256 260 263 265 266 268 269 269 271 272 271 271 271 270 270 270 272 273 272 267 266 268 271 277 286 290 292 290 291 292 291 292 292 291 292 293 295 296 297 297 300 301 303 303
262 263 264 262 261 260 257 255 255 256 258 260 262 264 267 269 271 274 275 275 274 273 272 273 274 277 279 280 277 278 281 281 279 280 283 287 288 291 294 296 298 295 292 291 294 296 296 297 297 298 299 301 303 304
266 266 267 267 267 267 266 266 266 267 267 268 269 270 271 274 275 274 274 273 272 272 273 274 273 274 273 271 272 272 272 272 276 284 291 296 300 303 304 300 296 294 294 295 296 297 297 298 299 300 302 304 306 305
269 269 269 269 269 269 269 269 268 268 268 269 270 270 270 270 268 269 268 268 268 267 265 267 269 267 266 269 266 268 273 280 287 291 298 301 301 300 298 296 295 294 294 295 297 299 299 300 300 302 303 304 304 303
272 273 272 271 270 270 269 268 267 266 265 263 262 260 257 256 258 257 254 250 254 260 268 268 265 264 265 265 264 270 278 286 288 289 293 296 297 297 298 297 297 297 297 298 300 299 300 302 302 302 303 302 301 301
275 274 274 272 270 267 264 262 259 254 249 246 245 244 238 245 249 250 253 258 260 263 266 267 267 268 268 269 273 279 285 288 290 291 292 294 297 299 298 298 297 297 298 299 300 299 299 299 300 300 300 300 299 299
320 302 289 233 88 188 204 235 248 239 228 225 215 225 236 252 251 245 253 263 265 268 272 272 271 271 273 275 278 282 286 288 290 291 292 294 296 296 297 297 297 297 297 297 297 297 298 299 299 299 299 298 298 298
143 126 70 78 51 200 206 214 207 242 240 233 229 238 247 253 252 257 279 286 286 283 279 277 277 278 279 281 284 286 286 288 290 293 295 297 297 297 296 296 296 297 297 296 296 296 297 297 297 297 296 296 296 295
238 232 351 215 210 209 260 243 225 217 222 235 246 252 252 255 267 278 281 279 276 273 275 277 279 281 283 284 286 288 289 291 292 294 295 296 296 297 297 298 298 299 299 299 299 299 299 299 298 298 297 296 295 294
269 274 281 272 276 288 291 270 269 266 252 250 255 257 261 264 266 267 269 271 273 274 276 278 280 281 284 286 287 289 289 290 292 296 298 299 299 301 302 302 302 302 302 303 302 302 301 300 299 299 298 296 295 294
251 264 262 259 256 253 253 253 249 248 250 255 259 265 269 271 272 273 275 277 279 280 281 283 285 286 288 289 289 291 294 296 298 299 299 300 300 301 301 301 301 302 302 302 303 304 304 304 304 302 300 296 293 290
288 286 280 275 275 274 275 276 276 275 276 276 277 278 279 280 280 280 280 281 282 284 285 286 287 289 291 293 295 297 299 300 300 301 302 301 302 303 303 303 303 305 306 307 309 309 310 310 310 309 306 302 297 292
280 280 279 280 281 283 284 285 284 283 283 283 283 284 285 285 285 286 285 285 286 287 288 289 291 292 294 296 297 299 300 301 301 302 303 304 304 305 306 307 309 310 311 312 314 315 317 320 321 320 318 313 307 300
281 286 287 289 290 290 291 291 290 291 291 292 292 291 290 289 289 289 289 290 290 291 291 292 292 293 295 295 297 299 300 301 302 304 306 307 308 309 309 308 308 311 313 316 318 320 325 328 330 330 328 325 318 308